Terminal Aerodrome Forecast
Issued by NWS Jackson, MS

Home | Current Version | Previous Version | Text Only | Print | Product List | Glossary On
Versions: 1 2 3 4 5 6 7 8 9 10 11 12 13 14 15
000
FTUS44 KMEG 202334
TAFTUP
TAF
KTUP 202334Z 2100/2124 09004KT P6SM BKN035
     FM210400 11004KT P6SM OVC030
     FM210700 08004KT P6SM OVC020
      TEMPO 2108/2112 -RA
     FM211200 11005KT P6SM OVC020
      TEMPO 2112/2116 -RA
     FM211800 17007KT P6SM OVC020=

USA.gov is the U.S. government's official web portal to all federal, state and local government web resources and services.